Location: Juzet
(42.9779°N, 0.7597°E)
Time: 07:55:01
(UTC+00:00)

Cosmos 2369 - Pass Details

Date: 14 July 2020
Orbit: 839 x 857 km, 71.0° (Epoch: 04 August)

Event Time Altitude Azimuth Distance (km) Brightness Sun altitude
Rises 01:39:42 0° 339° (NNW) 3,434 7.5 -21.7°
Reaches altitude 10° 01:42:14 10° 344° (NNW) 2,496 6.8 -21.5°
Maximum altitude 01:47:50 52° 61° (ENE) 1,053 4.4 -21.0°
Drops below altitude 10° 01:53:24 10° 137° (SE) 2,484 5.9 -20.6°
Enters shadow 01:54:54 - 141° (SE) 3,034 6.4 -20.4°
